DW3929 Weather Reports


Display with metric or nautical units.
time (UTC)temp
F
wind
direction
speed
MPH
gust
MPH
rain 1hr
in
rain 24hr
in
rain mn
in
humidity
%
barometer
mb
20260905172814 96 360 4.0 11.0 0.00 0.00 0.00 56 1013.3
20260905172314 96 360 7.0 12.0 0.00 0.00 0.00 56 1013.4
20260905171850 96 360 5.0 12.0 0.00 0.00 0.00 57 1013.5
20260905171327 96 360 3.0 6.0 0.00 0.00 0.00 57 1013.5
20260905170825 95 360 1.0 11.0 0.00 0.00 0.00 62 1013.6
20260905170325 95 360 4.0 11.0 0.00 0.00 0.00 60 1013.7
20260905165845 94 360 3.0 6.0 0.00 0.00 0.00 63 1013.8
20260905165324 94 360 4.0 8.0 0.00 0.00 0.00 62 1013.8
20260905164823 94 360 3.0 6.0 0.00 0.00 0.00 60 1013.8
20260905164344 95 360 3.0 11.0 0.00 0.00 0.00 60 1013.8
20260905163823 95 360 4.0 11.0 0.00 0.00 0.00 61 1013.8
20260905163322 94 360 3.0 11.0 0.00 0.00 0.00 61 1013.9
20260905162839 94 360 5.0 9.0 0.00 0.00 0.00 62 1013.9
20260905162317 94 360 4.0 11.0 0.00 0.00 0.00 63 1013.9
20260905161817 93 360 3.0 8.0 0.00 0.00 0.00 66 1013.9
20260905161315 92 360 4.0 8.0 0.00 0.00 0.00 64 1014.0
20260905160813 92 360 4.0 10.0 0.00 0.00 0.00 67 1014.0
20260905160350 91 360 3.0 10.0 0.00 0.00 0.00 67 1014.0
20260905155829 91 360 3.0 9.0 0.00 0.00 0.00 69 1014.0
20260905155348 91 360 2.0 9.0 0.00 0.00 0.00 68 1014.1
20260905154826 91 360 1.0 6.0 0.00 0.00 0.00 68 1014.1
20260905154326 91 360 3.0 9.0 0.00 0.00 0.00 67 1014.1
20260905153825 91 360 4.0 9.0 0.00 0.00 0.00 69 1014.0
20260905153324 91 360 3.0 9.0 0.00 0.00 0.00 72 1013.9
20260905152843 90 360 3.0 9.0 0.00 0.00 0.00 74 1013.9
20260905152321 90 360 3.0 6.0 0.00 0.00 0.00 73 1013.9
20260905151818 89 360 3.0 8.0 0.00 0.00 0.00 75 1013.9
20260905151336 89 360 4.0 9.0 0.00 0.00 0.00 76 1013.8
20260905150813 88 360 6.0 9.0 0.00 0.00 0.00 77 1013.8
20260905150328 88 360 3.0 9.0 0.00 0.00 0.00 78 1013.8
20260905145846 88 360 3.0 9.0 0.00 0.00 0.00 80 1013.8
20260905145323 87 360 4.0 10.0 0.00 0.00 0.00 81 1013.7
20260905144816 87 360 5.0 10.0 0.00 0.00 0.00 83 1013.8
20260905144315 86 360 2.0 6.0 0.00 0.00 0.00 84 1013.8
20260905143814 85 360 3.0 10.0 0.00 0.00 0.00 86 1013.8
20260905143313 84 360 3.0 9.0 0.00 0.00 0.00 87 1013.8
20260905142813 84 360 3.0 9.0 0.00 0.00 0.00 89 1013.9
20260905142332 83 360 5.0 9.0 0.00 0.00 0.00 91 1013.9
20260905141830 83 360 4.0 8.0 0.00 0.00 0.00 93 1013.8
20260905141330 82 360 2.0 5.0 0.00 0.00 0.00 96 1013.8
20260905140830 81 360 3.0 6.0 0.00 0.00 0.00 97 1013.7
20260905140330 81 360 2.0 6.0 0.00 0.00 0.00 98 1013.6
20260905135828 80 360 3.0 5.0 0.00 0.01 0.00 99 1013.7
20260905135349 79 360 1.0 4.0 0.00 0.01 0.00 99 1013.8
20260905134845 79 360 1.0 2.0 0.00 0.01 0.00 99 1013.8
20260905134343 78 360 0.0 2.0 0.00 0.01 0.00 99 1013.8
20260905133820 77 360 0.0 1.0 0.00 0.01 0.00 99 1013.7
20260905133317 76 360 0.0 1.0 0.00 0.01 0.00 99 1013.7
20260905132818 76 360 0.0 1.0 0.00 0.01 0.00 98 1013.7
20260905132316 75 360 0.0 1.0 0.00 0.01 0.00 98 1013.6
20260905131835 75 360 0.0 0.0 0.00 0.01 0.00 98 1013.5
20260905131353 75 360 0.0 0.0 0.00 0.01 0.00 98 1013.5
20260905130830 75 360 0.0 0.0 0.00 0.01 0.00 98 1013.5
20260905130328 74 360 0.0 0.0 0.00 0.01 0.00 98 1013.4
20260905125826 74 360 0.0 0.0 0.00 0.01 0.00 97 1013.3
20260905125315 74 360 0.0 0.0 0.00 0.01 0.00 97 1013.2
20260905124314 74 360 0.0 0.0 0.00 0.01 0.00 97 1013.1
20260905123834 74 360 0.0 0.0 0.00 0.01 0.00 97 1013.1
20260905123334 74 360 0.0 0.0 0.00 0.01 0.00 97 1013.0
20260905122812 74 360 0.0 0.0 0.00 0.01 0.00 97 1013.0
20260905122332 74 360 0.0 0.0 0.00 0.01 0.00 97 1013.0
20260905121832 74 360 0.0 0.0 0.00 0.01 0.00 97 1012.8
20260905121332 74 360 0.0 1.0 0.00 0.01 0.00 97 1012.9
20260905120831 74 360 0.0 2.0 0.00 0.01 0.00 97 1012.8
20260905120352 74 360 1.0 2.0 0.00 0.01 0.00 96 1012.8
20260905115828 74 360 0.0 1.0 0.00 0.01 0.00 96 1012.8
20260905115326 74 360 0.0 0.0 0.00 0.01 0.00 96 1012.8
20260905114817 74 360 0.0 0.0 0.00 0.01 0.00 96 1012.8
20260905114317 74 360 0.0 1.0 0.00 0.01 0.00 96 1012.8
20260905113816 74 360 0.0 0.0 0.00 0.01 0.00 96 1012.7
20260905113316 74 360 0.0 0.0 0.00 0.01 0.00 96 1012.7
20260905112815 74 360 0.0 0.0 0.00 0.01 0.00 96 1012.7
20260905112316 74 360 0.0 0.0 0.00 0.01 0.00 96 1012.7
20260905111835 74 360 0.0 0.0 0.00 0.01 0.00 96 1012.7
20260905111313 74 360 0.0 0.0 0.00 0.01 0.00 96 1012.6
20260905110812 74 360 0.0 0.0 0.00 0.01 0.00 96 1012.6
20260905110313 74 360 0.0 0.0 0.00 0.01 0.00 96 1012.6
20260905105833 74 360 0.0 0.0 0.00 0.01 0.00 96 1012.5
20260905105332 74 360 0.0 0.0 0.00 0.01 0.00 96 1012.4
20260905104850 74 360 0.0 0.0 0.00 0.01 0.00 96 1012.4
20260905104348 74 360 0.0 0.0 0.00 0.01 0.00 96 1012.4
20260905103828 74 360 0.0 0.0 0.00 0.01 0.00 96 1012.4
20260905103328 74 360 0.0 0.0 0.00 0.01 0.00 96 1012.3
20260905102828 74 360 0.0 0.0 0.00 0.01 0.00 96 1012.2
20260905102326 74 360 0.0 0.0 0.00 0.01 0.00 96 1012.1
20260905101826 75 360 0.0 0.0 0.00 0.01 0.00 96 1012.2
20260905101326 74 360 0.0 0.0 0.00 0.01 0.00 95 1012.1
20260905100825 75 360 0.0 0.0 0.00 0.01 0.00 95 1012.1
20260905100323 75 360 0.0 0.0 0.00 0.01 0.00 95 1012.1
20260905095842 75 360 0.0 0.0 0.00 0.01 0.00 95 1012.1
20260905095321 75 360 0.0 0.0 0.00 0.01 0.00 95 1012.1
20260905094821 75 360 0.0 0.0 0.00 0.01 0.00 95 1012.1
20260905094321 75 360 0.0 0.0 0.00 0.01 0.00 95 1012.2
20260905093821 75 360 0.0 0.0 0.00 0.01 0.00 95 1012.2
20260905093320 75 360 0.0 0.0 0.00 0.01 0.00 95 1012.1
20260905092839 75 360 0.0 0.0 0.00 0.01 0.00 95 1012.1
20260905092317 75 360 0.0 0.0 0.00 0.01 0.00 95 1012.1
20260905091817 75 360 0.0 0.0 0.00 0.01 0.00 95 1012.2
20260905091317 75 360 0.0 0.0 0.00 0.01 0.00 95 1012.2
20260905090816 76 360 0.0 0.0 0.00 0.01 0.00 95 1012.2
20260905090315 76 360 0.0 0.0 0.00 0.01 0.00 95 1012.2
20260905085814 76 360 0.0 0.0 0.00 0.01 0.00 95 1012.2
20260905085313 76 360 0.0 0.0 0.00 0.01 0.00 95 1012.1
20260905084848 76 360 0.0 0.0 0.00 0.01 0.00 95 1012.1
20260905084347 76 360 0.0 0.0 0.00 0.01 0.00 95 1012.1
20260905083845 76 360 0.0 0.0 0.00 0.01 0.00 94 1012.1
20260905083322 76 360 0.0 0.0 0.00 0.01 0.00 94 1012.2
20260905082843 76 360 0.0 0.0 0.00 0.01 0.00 94 1012.3
20260905082341 76 360 0.0 0.0 0.00 0.01 0.00 94 1012.3
20260905081819 76 360 0.0 0.0 0.00 0.01 0.00 94 1012.3
20260905081317 76 360 0.0 0.0 0.00 0.01 0.00 94 1012.5
20260905080857 76 360 0.0 0.0 0.00 0.01 0.00 94 1012.5
20260905080328 77 360 0.0 0.0 0.00 0.01 0.00 94 1012.5
20260905075827 77 360 0.0 0.0 0.00 0.01 0.00 94 1012.6
20260905075324 77 360 0.0 0.0 0.00 0.01 0.00 94 1012.7
20260905074825 77 360 0.0 0.0 0.00 0.01 0.00 93 1012.7
20260905074325 77 360 0.0 0.0 0.00 0.01 0.00 93 1012.6
20260905073824 77 360 0.0 0.0 0.00 0.01 0.00 94 1012.7
20260905073324 77 360 0.0 0.0 0.00 0.01 0.00 93 1012.7
20260905072826 77 360 0.0 0.0 0.00 0.01 0.00 93 1012.8
20260905072344 77 360 0.0 0.0 0.00 0.01 0.00 93 1012.8
20260905071823 77 360 0.0 0.0 0.00 0.01 0.00 93 1012.9
20260905071322 78 360 0.0 0.0 0.00 0.01 0.00 92 1013.0
20260905070821 78 360 0.0 0.0 0.00 0.01 0.00 92 1013.0
20260905070321 78 360 0.0 0.0 0.00 0.01 0.00 92 1012.9
20260905065821 78 360 0.0 0.0 0.00 0.01 0.00 92 1012.9
20260905065319 78 360 0.0 0.0 0.00 0.01 0.00 92 1012.9
20260905064818 78 360 0.0 0.0 0.00 0.01 0.00 91 1012.9
20260905064318 78 360 0.0 0.0 0.00 0.01 0.00 91 1012.9
20260905063817 79 360 0.0 0.0 0.00 0.01 0.00 92 1013.0
20260905063318 79 360 0.0 0.0 0.00 0.01 0.00 91 1013.1
20260905062817 79 360 0.0 0.0 0.00 0.01 0.00 90 1013.0
20260905062315 79 360 0.0 0.0 0.00 0.01 0.00 90 1013.0
20260905061851 79 360 0.0 0.0 0.00 0.01 0.00 90 1012.9
20260905061328 79 360 0.0 0.0 0.00 0.01 0.00 90 1013.0
20260905060849 80 360 0.0 0.0 0.00 0.01 0.00 90 1013.1
20260905060327 80 360 0.0 2.0 0.00 0.01 0.00 89 1013.1
20260905055819 80 360 0.0 2.0 0.00 0.01 0.00 89 1013.1
20260905055313 80 360 1.0 3.0 0.00 0.01 0.00 89 1013.1
20260905054832 80 360 1.0 3.0 0.00 0.01 0.00 89 1013.1
20260905054330 80 360 1.0 2.0 0.00 0.01 0.00 88 1013.1
20260905053830 80 360 1.0 3.0 0.00 0.01 0.00 88 1013.2
20260905053328 81 360 0.0 3.0 0.00 0.01 0.00 87 1013.1
20260905052826 81 360 0.0 3.0 0.00 0.01 0.00 87 1013.1
20260905052344 81 360 1.0 4.0 0.00 0.01 0.00 87 1013.1
20260905051822 81 360 1.0 4.0 0.00 0.01 0.00 87 1013.1
20260905051321 81 360 2.0 3.0 0.00 0.01 0.00 87 1013.1
20260905050821 81 360 1.0 3.0 0.00 0.01 0.00 86 1013.0
20260905050319 81 360 1.0 4.0 0.00 0.01 0.00 86 1013.0
20260905045838 81 360 1.0 4.0 0.00 0.01 0.01 86 1013.0
20260905045317 82 360 1.0 4.0 0.00 0.01 0.01 85 1013.0
20260905044816 82 360 2.0 4.0 0.00 0.01 0.01 85 1013.0
20260905044316 82 360 2.0 5.0 0.00 0.01 0.01 85 1013.0
20260905043836 82 360 2.0 6.0 0.00 0.01 0.01 84 1013.0
20260905043315 82 360 3.0 6.0 0.00 0.01 0.01 84 1013.0
20260905042816 82 360 3.0 6.0 0.00 0.01 0.01 84 1013.0
20260905042316 82 360 2.0 5.0 0.00 0.01 0.01 83 1013.1
20260905041817 82 360 2.0 5.0 0.00 0.01 0.01 82 1013.1
20260905041316 82 360 3.0 5.0 0.00 0.01 0.01 82 1013.0
20260905040816 82 360 2.0 5.0 0.00 0.01 0.01 82 1013.0
20260905040317 82 360 2.0 5.0 0.00 0.01 0.01 81 1013.0
20260905035836 82 360 3.0 5.0 0.00 0.01 0.01 81 1013.1
20260905035315 82 360 2.0 5.0 0.00 0.01 0.01 81 1013.0
20260905034814 82 360 2.0 4.0 0.00 0.01 0.01 81 1012.9
20260905034312 82 360 2.0 4.0 0.00 0.01 0.01 80 1013.0
20260905033812 83 360 1.0 6.0 0.00 0.01 0.01 80 1012.9
20260905033332 83 360 3.0 8.0 0.00 0.01 0.01 80 1012.9
20260905032830 83 360 2.0 8.0 0.00 0.01 0.01 80 1012.9
20260905032329 83 360 1.0 6.0 0.00 0.01 0.01 80 1012.7
20260905031828 83 360 2.0 8.0 0.00 0.01 0.01 80 1012.8
20260905031327 83 360 2.0 8.0 0.00 0.01 0.01 80 1012.8
20260905030813 83 360 4.0 8.0 0.00 0.01 0.01 81 1012.7
20260905030351 82 360 3.0 6.0 0.00 0.01 0.01 81 1012.6
20260905025829 82 360 2.0 6.0 0.00 0.01 0.01 81 1012.5
20260905025328 82 360 3.0 6.0 0.00 0.01 0.01 82 1012.4
20260905024827 82 360 3.0 6.0 0.00 0.01 0.01 82 1012.4
20260905024326 82 360 2.0 6.0 0.00 0.01 0.01 82 1012.5
20260905023824 82 360 1.0 4.0 0.00 0.01 0.01 82 1012.4
20260905023324 82 360 2.0 4.0 0.00 0.01 0.01 82 1012.4
20260905022823 82 360 1.0 4.0 0.00 0.01 0.01 81 1012.3
20260905022321 82 360 1.0 4.0 0.00 0.01 0.01 81 1012.3
20260905021820 82 360 1.0 4.0 0.00 0.01 0.01 81 1012.3
20260905021319 82 360 1.0 5.0 0.00 0.01 0.01 81 1012.1
20260905020818 82 360 2.0 5.0 0.00 0.01 0.01 81 1012.2
20260905020319 83 360 1.0 3.0 0.00 0.01 0.01 80 1012.1
20260905015818 83 360 1.0 5.0 0.00 0.01 0.01 79 1012.0
20260905015339 83 360 2.0 5.0 0.00 0.01 0.01 79 1012.1
20260905014819 83 360 2.0 5.0 0.00 0.01 0.01 78 1012.0
20260905014318 83 360 2.0 5.0 0.00 0.01 0.01 78 1012.0
20260905013838 83 360 0.0 3.0 0.00 0.01 0.01 78 1011.9
20260905013315 83 360 1.0 4.0 0.00 0.01 0.01 78 1011.8
20260905012816 83 360 1.0 3.0 0.00 0.01 0.01 77 1011.8
20260905012314 84 360 1.0 3.0 0.00 0.01 0.01 76 1011.7
20260905011852 84 360 0.0 3.0 0.00 0.01 0.01 75 1011.6
20260905011330 85 360 0.0 2.0 0.00 0.01 0.01 75 1011.5
20260905010828 85 360 0.0 2.0 0.00 0.01 0.01 74 1011.5
20260905010348 85 360 0.0 2.0 0.00 0.01 0.01 73 1011.6
20260905005822 86 360 0.0 4.0 0.00 0.01 0.01 72 1011.5
20260905005323 86 360 0.0 4.0 0.00 0.01 0.01 71 1011.5
20260905004822 87 360 1.0 5.0 0.00 0.01 0.01 70 1011.3
20260905004318 87 360 2.0 5.0 0.00 0.01 0.01 68 1011.3
20260905003819 87 360 1.0 5.0 0.00 0.01 0.01 69 1011.3
20260905003317 87 360 2.0 5.0 0.00 0.01 0.01 68 1011.3
20260905002815 88 360 2.0 5.0 0.00 0.01 0.01 67 1011.3
20260905002334 88 360 1.0 6.0 0.00 0.01 0.01 68 1011.2
20260905001813 88 360 2.0 9.0 0.00 0.01 0.01 66 1011.1
20260905001313 88 360 3.0 9.0 0.00 0.01 0.01 67 1011.1
20260905000851 88 360 3.0 10.0 0.00 0.01 0.01 68 1011.1
20260905000332 88 360 3.0 10.0 0.00 0.01 0.01 68 1011.1
20260904235829 88 360 2.0 9.0 0.00 0.01 0.01 68 1011.2
20260904235328 88 360 2.0 11.0 0.00 0.01 0.01 68 1011.1
20260904234828 89 360 4.0 12.0 0.00 0.01 0.01 67 1011.1
20260904234327 89 360 3.0 12.0 0.00 0.01 0.01 66 1011.2
20260904233826 89 360 3.0 11.0 0.00 0.01 0.01 67 1011.1
20260904233313 89 360 5.0 11.0 0.00 0.01 0.01 66 1011.1
20260904232828 89 360 4.0 10.0 0.00 0.01 0.01 66 1011.1
20260904232332 89 360 5.0 10.0 0.00 0.01 0.01 65 1011.0
20260904231831 90 360 4.0 13.0 0.00 0.01 0.01 65 1011.0
20260904231331 90 360 6.0 14.0 0.00 0.01 0.01 65 1011.1
20260904230831 91 360 5.0 13.0 0.00 0.01 0.01 64 1011.1
20260904230329 92 360 3.0 12.0 0.00 0.01 0.01 64 1011.1
20260904225828 92 360 5.0 13.0 0.00 0.01 0.01 64 1011.1
20260904225327 92 360 3.0 14.0 0.00 0.01 0.01 64 1011.0
20260904224826 92 360 6.0 14.0 0.00 0.01 0.01 65 1011.0
20260904224331 92 360 5.0 13.0 0.00 0.01 0.01 66 1011.0
20260904223831 91 360 3.0 14.0 0.00 0.01 0.01 66 1011.1
20260904223348 90 360 5.0 14.0 0.00 0.01 0.01 68 1011.1
20260904222826 90 360 4.0 12.0 0.00 0.01 0.01 69 1011.1
20260904222328 89 360 5.0 9.0 0.00 0.01 0.01 69 1011.2
20260904221847 89 360 2.0 10.0 0.00 0.01 0.01 69 1011.3
20260904221327 89 360 4.0 11.0 0.00 0.01 0.01 68 1011.3
20260904220825 90 360 3.0 11.0 0.00 0.01 0.01 68 1011.3
20260904220326 90 360 4.0 11.0 0.00 0.01 0.01 67 1011.4
20260904215826 90 360 4.0 11.0 0.00 0.01 0.01 68 1011.4
20260904215326 91 360 5.0 11.0 0.00 0.01 0.01 67 1011.4
20260904214825 91 360 3.0 11.0 0.00 0.01 0.01 66 1011.4
20260904214325 91 360 3.0 11.0 0.00 0.01 0.01 66 1011.4
20260904213826 92 360 5.0 13.0 0.00 0.01 0.01 66 1011.4
20260904213327 92 360 4.0 13.0 0.00 0.01 0.01 65 1011.4
20260904212827 93 360 4.0 9.0 0.00 0.01 0.01 65 1011.4
20260904212328 93 360 3.0 8.0 0.00 0.01 0.01 65 1011.6
20260904211822 93 360 4.0 8.0 0.00 0.01 0.01 60 1011.6
20260904211323 93 360 3.0 5.0 0.00 0.01 0.01 55 1011.5
20260904210821 92 360 3.0 9.0 0.00 0.01 0.01 55 1011.6
20260904210322 92 360 5.0 11.0 0.00 0.01 0.01 58 1011.6
20260904205821 92 360 4.0 6.0 0.00 0.01 0.01 56 1011.7
20260904205319 92 360 2.0 6.0 0.00 0.01 0.01 62 1011.8
20260904204820 92 360 2.0 5.0 0.00 0.01 0.01 61 1011.9
20260904204320 92 360 2.0 8.0 0.00 0.01 0.01 61 1011.9
20260904203820 92 360 3.0 8.0 0.00 0.01 0.01 61 1011.9
20260904203340 91 360 3.0 8.0 0.00 0.01 0.01 63 1012.0
20260904202821 91 360 3.0 6.0 0.00 0.01 0.01 62 1012.1
20260904202321 91 360 0.0 4.0 0.00 0.01 0.01 62 1012.2
20260904201821 91 360 1.0 4.0 0.00 0.01 0.01 65 1012.3
20260904201321 91 360 1.0 4.0 0.00 0.01 0.01 64 1012.4
20260904200821 91 360 2.0 4.0 0.00 0.01 0.01 64 1012.4
20260904200342 91 360 1.0 4.0 0.00 0.01 0.01 67 1012.5
20260904195820 91 360 0.0 4.0 0.00 0.01 0.01 69 1012.5
20260904195319 91 360 2.0 6.0 0.00 0.01 0.01 68 1012.5
20260904194820 91 360 1.0 6.0 0.00 0.01 0.01 64 1012.6
20260904194319 91 360 3.0 8.0 0.00 0.01 0.01 64 1012.6
20260904193819 91 360 4.0 8.0 0.00 0.01 0.01 63 1012.7
20260904193318 91 360 1.0 4.0 0.00 0.01 0.01 69 1012.8
20260904192820 91 360 1.0 3.0 0.00 0.01 0.01 69 1012.8
20260904192340 91 360 0.0 4.0 0.00 0.01 0.01 72 1012.7
20260904191818 90 360 2.0 4.0 0.00 0.01 0.01 69 1012.8
20260904191316 90 360 2.0 5.0 0.00 0.01 0.01 73 1012.8
20260904190837 90 360 3.0 5.0 0.00 0.01 0.01 72 1012.9
20260904190337 90 360 2.0 5.0 0.00 0.01 0.01 72 1012.9
20260904185816 89 360 1.0 3.0 0.00 0.01 0.01 78 1013.0
20260904185316 89 360 0.0 3.0 0.00 0.01 0.01 77 1013.1
20260904184816 88 360 2.0 3.0 0.00 0.01 0.01 77 1013.3
20260904184317 88 360 0.0 1.0 0.00 0.01 0.01 79 1013.2
20260904183818 88 360 0.0 2.0 0.00 0.01 0.01 82 1013.3
20260904183318 87 360 0.0 2.0 0.00 0.01 0.01 78 1013.3
20260904182819 87 360 0.0 0.0 0.00 0.01 0.01 82 1013.5
20260904182319 87 360 0.0 1.0 0.00 0.01 0.01 81 1013.5
20260904181821 87 360 0.0 1.0 0.00 0.01 0.01 82 1013.6
20260904181319 87 360 0.0 1.0 0.00 0.01 0.01 82 1013.7
20260904180821 87 360 0.0 2.0 0.00 0.01 0.01 81 1013.8
20260904180321 87 360 1.0 3.0 0.00 0.01 0.01 78 1013.8
20260904175819 87 360 1.0 4.0 0.00 0.01 0.01 78 1013.9
20260904175319 87 360 2.0 5.0 0.00 0.01 0.01 79 1013.9
20260904174821 87 360 3.0 5.0 0.00 0.01 0.01 77 1013.9
20260904174318 88 360 0.0 1.0 0.00 0.01 0.01 81 1013.9
20260904173819 88 360 0.0 3.0 0.00 0.01 0.01 81 1014.0
20260904173342 88 360 1.0 8.0 0.00 0.01 0.01 80 1014.0